This is the latest recevied weather packets stored in our database for station/object KQ4WWD. If no packets are shown the sender has not sent any weather packets the latest 10 day(s).
| Time | Temp. | Humidity | Pressure | Rain* | Wind** | Luminosity | Snow |
|---|---|---|---|---|---|---|---|
| 1788557637 | 26.11° C | 92% | 1013.8 hPa | 0 mm | - | 32 W/m² | - |
| 1788557333 | 26.11° C | 92% | 1013.4 hPa | 0 mm | - | 35 W/m² | - |
| 1788557033 | 26.11° C | 92% | 1013.7 hPa | 0 mm | - | 34 W/m² | - |
| 1788556728 | 26.11° C | 92% | 1013.7 hPa | 0 mm | - | 33 W/m² | - |
| 1788556423 | 26.67° C | 93% | 1014.1 hPa | 0 mm | - | 33 W/m² | - |
| 1788556118 | 26.67° C | 93% | 1013.9 hPa | 0 mm | - | 47 W/m² | - |
| 1788555818 | 26.67° C | 93% | 1013.5 hPa | 0 mm | - | 65 W/m² | - |
| 1788555514 | 26.67° C | 93% | 1013.5 hPa | 0 mm | - | 76 W/m² | - |
| 1788555210 | 26.11° C | 93% | 1013.3 hPa | 0 mm | - | 89 W/m² | - |
| 1788554906 | 26.67° C | 93% | 1013.5 hPa | 0 mm | - | 104 W/m² | - |
| 1788554602 | 26.67° C | 94% | 1013.6 hPa | 0 mm | - | 105 W/m² | - |
| 1788554298 | 26.67° C | 94% | 1013.5 hPa | 0 mm | - | 131 W/m² | - |
| 1788553994 | 26.67° C | 93% | 1013.5 hPa | 0 mm | - | 138 W/m² | - |
| 1788553689 | 26.67° C | 93% | 1013.4 hPa | 0 mm | - | 127 W/m² | - |
| 1788553386 | 26.67° C | 93% | 1013.6 hPa | 0 mm | - | 114 W/m² | - |
| 1788553081 | 26.11° C | 93% | 1013.5 hPa | 0 mm | - | 136 W/m² | - |
| 1788552781 | 26.67° C | 93% | 1013.1 hPa | 0 mm | - | 145 W/m² | - |
| 1788552476 | 26.67° C | 93% | 1013.4 hPa | 1.78 mm | - | 126 W/m² | - |
| 1788552176 | 26.67° C | 93% | 1013.2 hPa | 3.05 mm | - | 110 W/m² | - |
| 1788551875 | 26.11° C | 93% | 1013.4 hPa | 3.05 mm | - | 87 W/m² | - |
| 1788551574 | 26.67° C | 93% | 1013.7 hPa | 13.72 mm | - | 70 W/m² | - |
| 1788551269 | 26.67° C | 92% | 1013.8 hPa | 31.75 mm | - | 65 W/m² | - |
| 1788550968 | 26.67° C | 92% | 1014.2 hPa | 38.35 mm | - | 35 W/m² | - |
| 1788550663 | 27.22° C | 91% | 1014.4 hPa | 19.81 mm | - | 19 W/m² | - |
| 1788550359 | 29.44° C | 88% | 1013.9 hPa | 1.27 mm | - | 20 W/m² | - |
* Rain latest hour (hover to see other rain measurements)
** Current wind speed in m/s (hover to see current wind gust speed)